This is the latest recevied weather packets stored in our database for station/object OE-11007. If no packets are shown the sender has not sent any weather packets the latest 10 day(s).
| Time | Temp. | Humidity | Pressure | Rain* | Wind** | Luminosity | Snow |
|---|---|---|---|---|---|---|---|
| 1787839884 | 27.22° C | 53% | 1012.5 hPa | 0 mm | - | 477 W/m² | - |
| 1787839511 | 27.22° C | 51% | 1012.5 hPa | 0 mm | - | 484 W/m² | - |
| 1787838911 | 27.22° C | 50% | 1012.5 hPa | 0 mm | - | 560 W/m² | - |
| 1787838084 | 27.22° C | 51% | 1012.4 hPa | 0 mm | - | 519 W/m² | - |
| 1787837711 | 27.22° C | 51% | 1012.5 hPa | 0 mm | - | 498 W/m² | - |
| 1787837111 | 26.67° C | 52% | 1012.6 hPa | 0 mm | - | 567 W/m² | - |
| 1787836284 | 26.67° C | 50% | 1012.6 hPa | 0 mm | - | 629 W/m² | - |
| 1787835910 | 26.67° C | 50% | 1012.8 hPa | 0 mm | - | 553 W/m² | - |
| 1787835311 | 26.67° C | 52% | 1012.8 hPa | 0 mm | - | 636 W/m² | - |
| 1787834484 | 26.67° C | 53% | 1013.1 hPa | 0 mm | - | 602 W/m² | - |
| 1787834110 | 26.11° C | 51% | 1013.3 hPa | 0 mm | - | 671 W/m² | - |
| 1787833511 | 26.11° C | 53% | 1013.2 hPa | 0 mm | - | 733 W/m² | - |
| 1787832684 | 26.11° C | 52% | 1013.4 hPa | 0 mm | - | 733 W/m² | - |
| 1787832311 | 26.11° C | 54% | 1013.3 hPa | 0 mm | - | 747 W/m² | - |
| 1787831710 | 25.56° C | 55% | 1013.5 hPa | 0 mm | - | 761 W/m² | - |
| 1787830884 | 25.56° C | 55% | 1013.5 hPa | 0 mm | - | 768 W/m² | - |
| 1787830510 | 25.56° C | 57% | 1013.7 hPa | 0 mm | - | 782 W/m² | - |
| 1787829910 | 25° C | 57% | 1013.9 hPa | 0 mm | - | 761 W/m² | - |
| 1787829084 | 24.44° C | 58% | 1014.1 hPa | 0 mm | - | 678 W/m² | - |
| 1787828711 | 24.44° C | 58% | 1014.4 hPa | 0 mm | - | 574 W/m² | - |
| 1787828111 | 25° C | 59% | 1014.1 hPa | 0 mm | - | 761 W/m² | - |
| 1787827283 | 24.44° C | 57% | 1014.4 hPa | 0 mm | - | 802 W/m² | - |
| 1787826910 | 24.44° C | 60% | 1014.3 hPa | 0 mm | - | 754 W/m² | - |
| 1787826311 | 23.89° C | 62% | 1014.4 hPa | 0 mm | - | 616 W/m² | - |
| 1787825484 | 23.33° C | 59% | 1014.3 hPa | 0 mm | - | 657 W/m² | - |
* Rain latest hour (hover to see other rain measurements)
** Current wind speed in m/s (hover to see current wind gust speed)